OE3APM-13 Weather Reports


time (UTC)temp
C
wind
direction
speed
KPH
gust
KPH
rain 1hr
cm
rain 24hr
cm
rain mn
cm
humidity
%
barometer
mb
20260905223427 15 279 1.6 8.0 0.00 0.28 0.00 66 1024.8
20260905222926 15 272 1.6 8.0 0.00 0.28 0.00 66 1024.8
20260905222427 15 295 3.2 6.4 0.00 0.28 0.00 66 1024.7
20260905221925 15 296 3.2 8.0 0.00 0.28 0.00 66 1024.7
20260905221419 15 311 3.2 8.0 0.00 0.28 0.00 66 1024.7
20260905220910 15 283 3.2 6.4 0.00 0.28 0.00 65 1024.6
20260905220411 15 294 1.6 6.4 0.00 0.28 0.00 65 1024.6
20260905215910 15 267 1.6 8.0 0.00 0.28 0.28 65 1024.6
20260905215410 15 290 1.6 8.0 0.00 0.28 0.28 64 1024.5
20260905214907 16 274 3.2 6.4 0.00 0.28 0.28 64 1024.4
20260905214407 16 277 3.2 9.7 0.00 0.28 0.28 63 1024.4
20260905213903 16 263 3.2 9.7 0.00 0.28 0.28 63 1024.3
20260905213404 16 294 4.8 16.1 0.00 0.28 0.28 63 1024.2
20260905212904 16 301 8.0 17.7 0.00 0.28 0.28 63 1024.2
20260905212355 16 314 8.0 17.7 0.00 0.28 0.28 63 1024.2
20260905211856 16 298 6.4 12.9 0.00 0.28 0.28 64 1024.2
20260905211356 16 302 6.4 12.9 0.00 0.28 0.28 65 1024.2
20260905210856 16 314 6.4 12.9 0.00 0.28 0.28 65 1024.1
20260905210355 16 289 4.8 11.3 0.00 0.28 0.28 66 1024.0
20260905205854 16 297 4.8 11.3 0.00 0.28 0.28 67 1023.9
20260905205355 16 269 6.4 14.5 0.00 0.28 0.28 67 1023.9
20260905204853 16 315 6.4 14.5 0.00 0.28 0.28 67 1023.9
20260905204354 16 308 6.4 12.9 0.00 0.28 0.28 67 1023.9
20260905203850 16 313 4.8 12.9 0.00 0.28 0.28 67 1023.9
20260905203340 16 296 3.2 8.0 0.00 0.28 0.28 67 1023.7
20260905202837 16 281 4.8 9.7 0.00 0.28 0.28 67 1023.7
20260905202336 16 289 4.8 11.3 0.00 0.28 0.28 67 1023.5
20260905201837 16 312 3.2 11.3 0.00 0.28 0.28 67 1023.4
20260905201336 16 308 3.2 11.3 0.00 0.28 0.28 67 1023.4
20260905200840 16 276 3.2 9.7 0.00 0.28 0.28 67 1023.4
20260905200337 16 298 3.2 9.7 0.00 0.28 0.28 67 1023.3
20260905195832 16 263 3.2 11.3 0.00 0.28 0.28 67 1023.2
20260905195335 16 273 4.8 11.3 0.00 0.28 0.28 67 1023.2
20260905194833 16 260 4.8 11.3 0.00 0.28 0.28 66 1023.2
20260905194331 17 253 4.8 11.3 0.00 0.28 0.28 66 1023.0
20260905193833 17 243 4.8 9.7 0.00 0.28 0.28 66 1023.0
20260905193331 17 247 4.8 9.7 0.00 0.28 0.28 65 1022.9
20260905192832 17 254 3.2 9.7 0.00 0.28 0.28 65 1022.8
20260905192331 17 250 4.8 11.3 0.00 0.28 0.28 65 1022.7
20260905191831 17 246 4.8 11.3 0.00 0.28 0.28 64 1022.7
20260905191331 17 255 4.8 11.3 0.00 0.28 0.28 64 1022.6
20260905190831 17 286 4.8 11.3 0.00 0.28 0.28 63 1022.6
20260905190332 17 276 4.8 12.9 0.00 0.28 0.28 63 1022.5
20260905185830 17 297 6.4 12.9 0.00 0.28 0.28 63 1022.5
20260905185330 18 286 6.4 16.1 0.00 0.28 0.28 62 1022.4
20260905184831 18 263 6.4 17.7 0.00 0.28 0.28 62 1022.3
20260905184333 18 294 6.4 17.7 0.00 0.28 0.28 62 1022.3
20260905183833 18 261 8.0 16.1 0.00 0.28 0.28 61 1022.3
20260905183330 18 224 8.0 16.1 0.00 0.28 0.28 61 1022.3
20260905182831 18 329 6.4 16.1 0.00 0.28 0.28 60 1022.2
20260905182331 18 271 6.4 16.1 0.00 0.28 0.28 60 1022.0
20260905181830 18 318 6.4 17.7 0.00 0.28 0.28 60 1022.0
20260905181329 18 236 8.0 17.7 0.00 0.28 0.28 59 1021.8
20260905180827 18 259 9.7 22.5 0.00 0.28 0.28 58 1021.8
20260905180327 18 306 9.7 22.5 0.00 0.28 0.28 58 1021.6
20260905175826 19 246 9.7 22.5 0.00 0.28 0.28 58 1021.5
20260905175323 19 229 8.0 19.3 0.00 0.28 0.28 57 1021.5
20260905174823 19 281 8.0 24.1 0.00 0.28 0.28 56 1021.4
20260905174322 19 286 9.7 24.1 0.00 0.28 0.28 55 1021.4
20260905173821 19 257 9.7 19.3 0.00 0.28 0.28 55 1021.3
20260905173327 20 275 9.7 19.3 0.00 0.28 0.28 55 1021.3
20260905172825 20 288 11.3 24.1 0.00 0.28 0.28 54 1021.2
20260905172319 20 276 11.3 25.7 0.00 0.28 0.28 54 1021.2
20260905171821 20 254 12.9 25.7 0.00 0.28 0.28 53 1021.2
20260905171312 20 244 11.3 27.4 0.00 0.28 0.28 53 1021.2
20260905170806 20 240 11.3 30.6 0.00 0.28 0.28 53 1021.1
20260905170303 20 277 11.3 22.5 0.00 0.28 0.28 53 1021.1
20260905165757 20 223 11.3 27.4 0.00 0.28 0.28 53 1021.1
20260905165253 20 270 11.3 27.4 0.00 0.28 0.28 53 1021.1
20260905164751 20 246 11.3 27.4 0.00 0.28 0.28 54 1021.1
20260905164251 20 271 9.7 27.4 0.00 0.28 0.28 54 1021.0
20260905163749 20 258 11.3 29.0 0.00 0.28 0.28 54 1021.0
20260905163248 20 263 12.9 29.0 0.00 0.28 0.28 54 1021.0
20260905162745 20 265 12.9 32.2 0.00 0.28 0.28 53 1021.1
20260905162244 21 261 11.3 32.2 0.00 0.28 0.28 52 1021.0
20260905161744 21 290 9.7 20.9 0.00 0.28 0.28 52 1021.0
20260905161242 21 303 11.3 27.4 0.00 0.28 0.28 52 1020.9
20260905160741 21 313 11.3 27.4 0.00 0.28 0.28 52 1020.8
20260905160237 21 287 11.3 24.1 0.00 0.28 0.28 51 1020.8
20260905155735 21 220 12.9 30.6 0.00 0.28 0.28 51 1020.8
20260905155234 21 313 14.5 32.2 0.00 0.28 0.28 51 1020.8
20260905154733 21 291 16.1 32.2 0.00 0.28 0.28 50 1020.7
20260905154234 21 40 12.9 29.0 0.00 0.28 0.28 50 1020.8
20260905153733 21 315 12.9 37.0 0.00 0.28 0.28 50 1020.7
20260905153235 21 281 16.1 37.0 0.00 0.28 0.28 49 1020.8
20260905152732 21 298 12.9 30.6 0.00 0.28 0.28 50 1020.7
20260905152225 21 300 11.3 30.6 0.00 0.28 0.28 51 1020.8
20260905151726 21 281 14.5 27.4 0.00 0.28 0.28 51 1020.7
20260905151218 21 251 12.9 29.0 0.00 0.28 0.28 49 1020.8
20260905150711 22 271 12.9 29.0 0.00 0.28 0.28 49 1020.6
20260905150208 22 283 12.9 27.4 0.00 0.28 0.28 50 1020.7
20260905145707 22 276 14.5 25.7 0.00 0.28 0.28 48 1020.7
20260905145207 22 280 12.9 25.7 0.00 0.28 0.28 49 1020.5
20260905144704 22 271 11.3 35.4 0.00 0.28 0.28 51 1020.6
20260905144205 22 272 11.3 35.4 0.00 0.28 0.28 52 1020.6
20260905143704 21 271 14.5 27.4 0.00 0.28 0.28 53 1020.7
20260905143203 21 293 14.5 30.6 0.00 0.28 0.28 51 1020.7
20260905142702 21 317 16.1 30.6 0.00 0.28 0.28 52 1020.8
20260905142203 21 286 17.7 40.2 0.00 0.28 0.28 52 1020.8
20260905141704 21 247 16.1 40.2 0.00 0.28 0.28 52 1020.9
20260905141205 21 292 12.9 29.0 0.00 0.28 0.28 54 1020.9
20260905140701 21 293 11.3 27.4 0.00 0.28 0.28 56 1020.9
20260905140201 20 273 12.9 27.4 0.00 0.28 0.28 58 1020.8
20260905135701 20 296 11.3 24.1 0.00 0.28 0.28 61 1020.8
20260905135159 20 326 9.7 20.9 0.00 0.28 0.28 59 1020.9
20260905134652 20 317 9.7 27.4 0.00 0.28 0.28 58 1020.9
20260905134149 20 232 9.7 27.4 0.00 0.28 0.28 59 1021.0
20260905133644 20 305 11.3 20.9 0.00 0.28 0.28 58 1021.0
20260905133143 20 319 9.7 19.3 0.00 0.28 0.28 58 1020.9
20260905132643 20 319 11.3 22.5 0.00 0.28 0.28 59 1021.0
20260905132142 21 276 14.5 22.5 0.00 0.28 0.28 58 1021.0
20260905131642 21 267 12.9 25.7 0.00 0.28 0.28 59 1021.0
20260905131142 21 323 12.9 25.7 0.00 0.28 0.28 57 1020.9
20260905130643 21 246 12.9 25.7 0.00 0.28 0.28 56 1021.1
20260905130155 22 250 12.9 33.8 0.00 0.28 0.28 55 1021.1
20260905125644 22 275 14.5 33.8 0.00 0.28 0.28 54 1021.2
20260905125141 22 231 16.1 33.8 0.00 0.28 0.28 55 1021.0
20260905124643 22 0 16.1 38.6 0.00 0.28 0.28 55 1021.0
20260905124143 22 263 12.9 38.6 0.00 0.28 0.28 55 1021.2
20260905123642 22 307 12.9 30.6 0.00 0.28 0.28 55 1021.2
20260905123142 22 279 16.1 33.8 0.00 0.28 0.28 56 1021.2
20260905122642 22 311 14.5 33.8 0.00 0.28 0.28 56 1021.2
20260905122142 22 336 14.5 37.0 0.00 0.28 0.28 57 1021.1
20260905121640 22 202 16.1 37.0 0.00 0.28 0.28 57 1021.1
20260905121134 22 277 17.7 38.6 0.00 0.28 0.28 56 1021.1
20260905120628 21 257 16.1 38.6 0.00 0.28 0.28 57 1021.2
20260905120121 21 289 12.9 30.6 0.00 0.28 0.28 61 1021.1
20260905115621 21 209 12.9 29.0 0.00 0.28 0.28 62 1021.1
20260905115112 21 350 14.5 29.0 0.00 0.28 0.28 62 1021.1
20260905114606 20 256 14.5 29.0 0.00 0.28 0.28 64 1021.2
20260905114107 20 271 14.5 27.4 0.00 0.28 0.28 65 1021.1
20260905113609 20 265 12.9 27.4 0.00 0.28 0.28 66 1021.1
20260905113106 20 289 12.9 22.5 0.00 0.28 0.28 66 1021.3
20260905112606 20 302 12.9 22.5 0.00 0.28 0.28 64 1021.3
20260905112107 20 282 12.9 24.1 0.00 0.28 0.28 64 1021.3
20260905111606 20 246 14.5 29.0 0.00 0.28 0.28 64 1021.3
20260905111108 20 288 14.5 30.6 0.00 0.28 0.28 66 1021.3
20260905110605 20 239 12.9 30.6 0.00 0.28 0.28 64 1021.4
20260905110108 20 205 11.3 25.7 0.00 0.28 0.28 65 1021.3
20260905105605 20 283 11.3 30.6 0.00 0.28 0.28 62 1021.3
20260905105106 20 274 9.7 30.6 0.00 0.28 0.28 63 1021.4
20260905104603 20 130 9.7 20.9 0.00 0.28 0.28 66 1021.4
20260905104104 20 280 9.7 20.9 0.00 0.28 0.28 64 1021.3
20260905103602 20 297 11.3 20.9 0.00 0.28 0.28 66 1021.4
20260905103104 20 314 12.9 24.1 0.00 0.28 0.28 66 1021.4
20260905102558 20 296 12.9 24.1 0.00 0.28 0.28 68 1021.3
20260905102057 19 275 12.9 24.1 0.00 0.28 0.28 68 1021.3
20260905101549 19 282 9.7 24.1 0.00 0.28 0.28 66 1021.3
20260905101045 19 283 9.7 24.1 0.00 0.28 0.28 67 1021.4
20260905100532 19 257 8.0 20.9 0.00 0.28 0.28 69 1021.4
20260905100027 19 273 9.7 24.1 0.00 0.28 0.28 70 1021.4
20260905095522 19 260 12.9 25.7 0.00 0.28 0.28 70 1021.5
20260905095015 18 244 14.5 29.0 0.00 0.28 0.28 70 1021.4
20260905094510 18 290 14.5 30.6 0.00 0.28 0.28 71 1021.4
20260905094002 18 330 16.1 30.6 0.00 0.28 0.28 70 1021.5
20260905093502 18 278 14.5 27.4 0.00 0.28 0.28 70 1021.5
20260905092958 18 269 12.9 27.4 0.00 0.28 0.28 72 1021.5
20260905092457 18 189 12.9 25.7 0.00 0.28 0.28 75 1021.6
20260905091957 18 253 11.3 25.7 0.00 0.28 0.28 77 1021.5
20260905091453 18 288 12.9 25.7 0.00 0.28 0.28 77 1021.6
20260905090951 18 247 11.3 22.5 0.00 0.28 0.28 77 1021.6
20260905090451 17 267 11.3 24.1 0.00 0.28 0.28 80 1021.6
20260905085951 17 232 8.0 24.1 0.00 0.28 0.28 80 1021.6
20260905085450 17 248 6.4 16.1 0.00 0.28 0.28 85 1021.5
20260905084952 16 224 8.0 14.5 0.00 0.28 0.28 86 1021.3
20260905084445 16 237 6.4 16.1 0.00 0.28 0.28 85 1021.5
20260905083945 16 216 6.4 16.1 0.00 0.28 0.28 85 1021.4
20260905083441 15 257 6.4 16.1 0.00 0.28 0.28 84 1021.3
20260905082941 15 240 6.4 16.1 0.00 0.28 0.28 85 1021.3
20260905082441 15 249 6.4 16.1 0.00 0.28 0.28 85 1021.2
20260905081950 15 277 6.4 16.1 0.00 0.28 0.28 88 1021.1
20260905081440 15 257 6.4 12.9 0.03 0.28 0.28 88 1021.1
20260905080940 15 237 8.0 12.9 0.03 0.28 0.28 88 1021.1
20260905080439 15 248 8.0 14.5 0.03 0.28 0.28 89 1021.2
20260905075934 15 257 8.0 14.5 0.03 0.28 0.28 89 1021.1
20260905075424 14 223 9.7 16.1 0.03 0.28 0.28 90 1021.1
20260905074921 14 246 9.7 19.3 0.03 0.28 0.28 91 1021.1
20260905074418 14 244 8.0 19.3 0.03 0.28 0.28 91 1021.0
20260905073908 13 271 8.0 17.7 0.05 0.28 0.28 90 1021.0
20260905073403 13 203 8.0 16.1 0.05 0.28 0.28 90 1020.9
20260905072854 13 229 6.4 16.1 0.05 0.28 0.28 90 1020.7
20260905072353 13 247 6.4 14.5 0.05 0.28 0.28 90 1020.5
20260905071846 13 229 6.4 14.5 0.05 0.28 0.28 90 1020.2
20260905071342 13 230 6.4 14.5 0.05 0.25 0.25 90 1020.2
20260905070840 13 232 6.4 12.9 0.05 0.25 0.25 89 1020.0
20260905070340 13 241 4.8 11.3 0.05 0.25 0.25 89 1019.8
20260905065838 13 240 4.8 14.5 0.05 0.25 0.25 89 1019.6
20260905065339 13 212 6.4 16.1 0.05 0.25 0.25 89 1019.9
20260905064839 13 246 8.0 16.1 0.08 0.25 0.25 89 1020.3
20260905064339 13 254 8.0 14.5 0.08 0.23 0.23 90 1020.4
20260905063838 13 245 6.4 12.9 0.10 0.23 0.23 90 1020.3
20260905063338 13 211 4.8 12.9 0.10 0.23 0.23 89 1019.9
20260905062836 13 268 4.8 12.9 0.13 0.23 0.23 89 1019.9
20260905062335 13 266 4.8 9.7 0.15 0.23 0.23 89 1020.2
20260905061835 13 285 3.2 9.7 0.15 0.23 0.23 88 1020.2
20260905061334 13 298 3.2 9.7 0.15 0.23 0.23 88 1020.5
20260905060833 13 296 4.8 9.7 0.15 0.23 0.23 88 1020.6
20260905060332 13 288 4.8 9.7 0.15 0.23 0.23 87 1020.4
20260905055833 13 248 4.8 16.1 0.15 0.23 0.23 87 1020.7
20260905055332 13 274 6.4 17.7 0.13 0.20 0.20 87 1020.7
20260905054831 14 285 6.4 17.7 0.10 0.18 0.18 87 1021.2
20260905054324 14 269 6.4 12.9 0.08 0.15 0.15 87 1021.2
20260905053823 14 328 8.0 16.1 0.05 0.15 0.15 86 1020.9
20260905053322 14 302 6.4 16.1 0.05 0.15 0.13 86 1020.9
20260905052822 14 302 6.4 14.5 0.05 0.13 0.13 86 1020.8
20260905052322 14 275 6.4 12.9 0.03 0.10 0.08 86 1020.8
20260905051822 14 291 3.2 8.0 0.00 0.08 0.08 86 1020.6
20260905051323 14 315 1.6 8.0 0.00 0.08 0.08 86 1019.9
20260905050826 14 302 0.0 4.8 0.00 0.08 0.08 86 1019.9
20260905050322 14 302 0.0 8.0 0.05 0.08 0.08 85 1020.2
20260905045824 14 302 1.6 8.0 0.05 0.08 0.08 85 1019.9
20260905045325 14 302 4.8 8.0 0.05 0.08 0.08 85 1020.2
20260905044824 14 329 3.2 8.0 0.08 0.08 0.08 84 1019.9
20260905044322 15 316 3.2 6.4 0.08 0.08 0.08 84 1019.8
20260905043823 15 344 1.6 6.4 0.08 0.08 0.08 84 1019.4
20260905043316 15 349 1.6 4.8 0.08 0.08 0.08 84 1019.3
20260905042812 15 350 1.6 6.4 0.08 0.08 0.08 83 1019.2
20260905042309 15 351 3.2 6.4 0.08 0.08 0.08 83 1019.4
20260905041808 15 327 4.8 8.0 0.08 0.08 0.08 82 1019.3
20260905041308 15 326 4.8 8.0 0.08 0.08 0.08 81 1019.2
20260905040808 15 327 6.4 16.1 0.08 0.08 0.08 80 1019.3
20260905040307 16 306 8.0 16.1 0.05 0.05 0.03 80 1019.3
20260905035805 16 320 4.8 9.7 0.03 0.03 0.03 79 1019.1
20260905035306 16 324 3.2 9.7 0.03 0.03 0.03 77 1019.0
20260905034805 16 313 4.8 11.3 0.00 0.00 0.00 76 1018.8
20260905034306 16 307 6.4 14.5 0.00 0.00 0.00 75 1019.1
20260905033816 16 327 6.4 14.5 0.00 0.00 0.00 73 1018.9
20260905033306 16 324 4.8 11.3 0.00 0.00 0.00 72 1018.7
20260905032804 16 290 4.8 9.7 0.00 0.00 0.00 71 1018.9
20260905032306 17 305 4.8 9.7 0.00 0.00 0.00 70 1018.4
20260905031801 17 336 4.8 8.0 0.00 0.00 0.00 69 1017.9
20260905031302 17 298 4.8 8.0 0.00 0.00 0.00 69 1018.2
20260905030802 17 282 6.4 9.7 0.00 0.00 0.00 68 1018.0
20260905030302 17 305 9.7 17.7 0.00 0.00 0.00 67 1018.0
20260905025802 17 311 11.3 20.9 0.00 0.00 0.00 66 1017.9
20260905025306 17 342 9.7 20.9 0.00 0.00 0.00 66 1017.8
20260905024803 17 336 8.0 17.7 0.00 0.00 0.00 68 1018.5
20260905024303 17 344 6.4 17.7 0.00 0.00 0.00 68 1018.2
20260905023803 17 303 6.4 11.3 0.00 0.00 0.00 68 1017.7
20260905023300 17 318 8.0 12.9 0.00 0.00 0.00 68 1017.8
20260905022754 17 300 11.3 19.3 0.00 0.00 0.00 68 1017.6
20260905022254 17 329 14.5 22.5 0.00 0.00 0.00 67 1017.5
20260905021755 17 342 14.5 22.5 0.00 0.00 0.00 67 1017.5
20260905021256 18 339 14.5 22.5 0.00 0.00 0.00 67 1017.3
20260905020752 18 340 14.5 22.5 0.00 0.00 0.00 68 1017.4
20260905015752 18 22 14.5 29.0 0.00 0.00 0.00 69 1017.1
20260905015253 18 351 16.1 29.0 0.00 0.00 0.00 69 1016.9
20260905014749 19 342 16.1 24.1 0.00 0.00 0.00 68 1016.9
20260905014249 19 0 16.1 30.6 0.00 0.00 0.00 67 1016.9
20260905013739 20 24 19.3 35.4 0.00 0.00 0.00 66 1016.5
20260905013238 20 54 22.5 37.0 0.00 0.00 0.00 64 1016.5
20260905012738 21 15 17.7 37.0 0.00 0.00 0.00 61 1016.2
20260905012241 21 37 6.4 14.5 0.00 0.00 0.00 60 1015.9
20260905011738 21 326 3.2 9.7 0.00 0.00 0.00 61 1015.6
20260905011240 21 291 3.2 8.0 0.00 0.00 0.00 61 1015.4
20260905010738 21 263 4.8 8.0 0.00 0.00 0.00 60 1015.4
20260905010238 21 284 4.8 11.3 0.00 0.00 0.00 60 1015.4
20260905005740 22 290 4.8 11.3 0.00 0.00 0.00 59 1015.4
20260905005240 22 297 4.8 11.3 0.00 0.00 0.00 59 1015.4
20260905004740 22 283 4.8 14.5 0.00 0.00 0.00 58 1015.2
20260905004238 22 268 3.2 14.5 0.00 0.00 0.00 58 1015.1
20260905003738 22 268 4.8 9.7 0.00 0.00 0.00 58 1015.1
20260905003238 22 288 6.4 14.5 0.00 0.00 0.00 58 1015.0
20260905002737 22 257 6.4 14.5 0.00 0.00 0.00 57 1014.9
20260905002238 22 309 4.8 12.9 0.00 0.00 0.00 57 1014.9
20260905001740 22 258 6.4 19.3 0.00 0.00 0.00 56 1014.8
20260905001240 22 259 6.4 20.9 0.00 0.00 0.00 56 1014.7
20260905000736 22 279 8.0 20.9 0.00 0.00 0.00 56 1014.7
20260905000236 22 267 6.4 16.1 0.00 0.00 0.00 56 1014.7
20260904235737 22 239 8.0 16.1 0.00 0.00 0.00 57 1014.7
20260904235234 22 213 8.0 17.7 0.00 0.00 0.00 57 1014.7
20260904234734 22 215 8.0 17.7 0.00 0.00 0.00 58 1014.5
20260904234235 22 211 6.4 16.1 0.00 0.00 0.00 58 1014.7
20260904233736 22 256 8.0 16.1 0.00 0.00 0.00 59 1014.7
20260904233233 21 211 8.0 16.1 0.00 0.00 0.00 60 1014.5
20260904232734 21 221 8.0 16.1 0.00 0.00 0.00 61 1014.4
20260904232232 21 232 8.0 14.5 0.00 0.00 0.00 63 1014.5
20260904231729 20 223 6.4 14.5 0.00 0.00 0.00 65 1014.5
20260904231230 20 246 6.4 16.1 0.00 0.00 0.00 67 1014.5
20260904230730 18 244 8.0 16.1 0.00 0.00 0.00 69 1014.5
20260904230232 18 226 6.4 14.5 0.00 0.00 0.00 71 1014.4
20260904225731 17 238 4.8 11.3 0.00 0.00 0.00 74 1014.5
20260904225231 17 221 3.2 11.3 0.00 0.00 0.00 77 1014.4
20260904224730 16 239 1.6 6.4 0.00 0.00 0.00 80 1014.4
20260904224230 16 236 1.6 6.4 0.00 0.00 0.00 80 1014.4
20260904223724 16 236 3.2 6.4 0.00 0.00 0.00 79 1014.4